This is the latest recevied weather packets stored in our database for station/object KO4DYK. If no packets are shown the sender has not sent any weather packets the latest 10 day(s).
| Time | Temp. | Humidity | Pressure | Rain* | Wind** | Luminosity | Snow |
|---|---|---|---|---|---|---|---|
| 1788023673 | 33.33° C | 49% | 1021 hPa | 0 mm | - | 665 W/m² | - |
| 1788023370 | 32.78° C | 48% | 1021.1 hPa | 0 mm | - | 735 W/m² | - |
| 1788023069 | 32.78° C | 51% | 1021.1 hPa | 0 mm | - | 666 W/m² | - |
| 1788022767 | 32.78° C | 52% | 1021.2 hPa | 0 mm | - | 209 W/m² | - |
| 1788022466 | 33.89° C | 47% | 1021.4 hPa | 0 mm | - | 676 W/m² | - |
| 1788022161 | 32.78° C | 51% | 1021.2 hPa | 0 mm | - | 708 W/m² | - |
| 1788021855 | 32.22° C | 54% | 1021.1 hPa | 0 mm | - | 702 W/m² | - |
| 1788021554 | 32.22° C | 54% | 1021.3 hPa | 0 mm | - | 727 W/m² | - |
| 1788021252 | 33.33° C | 51% | 1021.4 hPa | 0 mm | - | 707 W/m² | - |
| 1788020948 | 33.89° C | 50% | 1021.4 hPa | 0 mm | - | 675 W/m² | - |
| 1788020647 | 32.78° C | 53% | 1021.4 hPa | 0 mm | - | 646 W/m² | - |
| 1788020344 | 31.67° C | 55% | 1021.5 hPa | 0 mm | - | 688 W/m² | - |
| 1788020040 | 31.67° C | 54% | 1021.3 hPa | 0 mm | - | 691 W/m² | - |
| 1788019740 | 31.67° C | 54% | 1021.4 hPa | 0 mm | - | 639 W/m² | - |
| 1788019440 | 31.67° C | 53% | 1021.5 hPa | 0 mm | - | 616 W/m² | - |
| 1788019137 | 31.11° C | 53% | 1021.5 hPa | 0 mm | - | 627 W/m² | - |
| 1788018837 | 32.22° C | 53% | 1021.7 hPa | 0 mm | - | 663 W/m² | - |
| 1788018532 | 32.22° C | 55% | 1021.5 hPa | 0 mm | - | 642 W/m² | - |
| 1788018237 | 32.22° C | 59% | 1021.6 hPa | 0 mm | - | 618 W/m² | - |
| 1788017927 | 31.67° C | 60% | 1021.4 hPa | 0 mm | - | 618 W/m² | - |
| 1788017623 | 30.56° C | 60% | 1021.5 hPa | 0 mm | - | 677 W/m² | - |
| 1788017320 | 31.67° C | 61% | 1021.7 hPa | 0 mm | - | 601 W/m² | - |
| 1788017016 | 30.56° C | 61% | 1021.7 hPa | 0 mm | - | 590 W/m² | - |
| 1788016715 | 30.56° C | 64% | 1021.6 hPa | 0 mm | - | 528 W/m² | - |
| 1788016413 | 31.67° C | 62% | 1021.6 hPa | 0 mm | - | 547 W/m² | - |
* Rain latest hour (hover to see other rain measurements)
** Current wind speed in m/s (hover to see current wind gust speed)